AirNav   Air Wisconsin pilot careers
 
 1428 users online  

0C0 Dacy Airport
Harvard, Illinois, USA

GOING TO HARVARD?


FAA INFORMATION EFFECTIVE 13 SEPTEMBER 2018

Location

FAA Identifier: 0C0
Lat/Long: 42-24-08.9000N / 088-37-56.6000W
42-24.148333N / 088-37.943333W
42.4024722 / -88.6323889
(estimated)
Elevation: 913.2 ft. / 278.3 m (surveyed)
Variation: 00W (1985)
From city: 1 mile SW of HARVARD, IL
Time zone: UTC -5 (UTC -6 during Standard Time)
Zip code: 60033

Airport Operations

Airport use: Open to the public
Activation date: 11/1945
Control tower: no
ARTCC: CHICAGO CENTER
FSS: KANKAKEE FLIGHT SERVICE STATION
NOTAMs facility: IKK (NOTAM-D service available)
Attendance: 0800-2200
Pattern altitude: 1513.2 ft. MSL
Wind indicator: lighted
Segmented circle: no
Lights: SS-SR

Airport Communications

CTAF: 122.9

Nearby radio navigation aids

VOR radial/distance  VOR name  Freq  Var
BUUr221/22.6BURBUN VOR/DME114.5001W
JVLr111/22.9JANESVILLE VOR/DME114.3003E
RFDr066/27.3ROCKFORD VOR/DME110.8001E
OBKr292/32.1NORTHBROOK VOR/DME113.0002W
DPAr336/33.2DUPAGE VOR/DME108.4002E

 
NDB name  Hdg/Dist  Freq  Var  ID
LAKE LAWN188/17.940402WLVV .-.. ...- ...-

Airport Services

Fuel available: 100LL
Parking: hangars and tiedowns
Airframe service: MAJOR
Powerplant service: MAJOR
Bottled oxygen: NONE
Bulk oxygen: NONE

Runway Information

Runway 9/27

Dimensions: 3589 x 105 ft. / 1094 x 32 m
Surface: turf, in fair condition
Runway edge markings: DSPLCD THLD MKD WITH WHITE TIRES.
RUNWAY 9  RUNWAY 27
Latitude: 42-24.028165N42-24.030960N
Longitude: 088-38.471987W088-37.674715W
Elevation: 898.8 ft.912.6 ft.
Traffic pattern: leftleft
Runway heading: 090 magnetic, 090 true270 magnetic, 270 true
Displaced threshold: 300 ft.no
Markings: nonenone
Runway end identifier lights: nono
Obstructions: 22 ft. tree, 15 ft. from runway, 93 ft. right of centerline
APCH RATIO 14:1 TO DSPLCD THLD.
55 ft. tree, 1318 ft. from runway, 102 ft. left of centerline, 23:1 slope to clear

Runway 14/32

Dimensions: 2633 x 100 ft. / 803 x 30 m
Surface: turf, in fair condition
Runway edge markings: DSPLCD THLD MKD WITH WHITE TIRES.
RUNWAY 14  RUNWAY 32
Latitude: 42-24.431042N42-24.039162N
Longitude: 088-37.943762W088-37.693768W
Elevation: 911.7 ft.911.9 ft.
Traffic pattern: leftleft
Runway heading: 155 magnetic, 155 true335 magnetic, 335 true
Displaced threshold: 681 ft.no
Markings: nonenone
Runway end identifier lights: nono
Obstructions: 45 ft. tree, 230 ft. from runway, 125 ft. right of centerline, 4:1 slope to clear
SLOPE 20:1 TO DSPLCD THLD.
none

Runway 18/36

Dimensions: 2577 x 120 ft. / 785 x 37 m
Surface: turf, in fair condition
Runway edge lights: non-standard
RWY 18/36 NSTD LIRL; NSTD SPACING & NON-FRANGIBLE. RY 18/36 2,272' LIGHTED.
Runway edge markings: RY 18 DSPLCD THLD MKD WITH WHITE TIRES AND ORANGE & WHITE BARRELS.
RUNWAY 18  RUNWAY 36
Latitude: 42-24.438567N42-24.014260N
Longitude: 088-37.889175W088-37.888948W
Elevation: 913.2 ft.908.6 ft.
Traffic pattern: leftleft
Runway heading: 180 magnetic, 180 true000 magnetic, 360 true
Displaced threshold: 305 ft.no
Markings: nonenone
Runway end identifier lights: nono
Obstructions: 15 ft. road, 30 ft. from runway, 2:1 slope to clear
APCH RATIO 22:1 TO DSPLCD THLD.
none

Airport Ownership and Management from official FAA records

Ownership: Privately-owned
Owner: ELSIE DACY ESTATE
22211 AIRPORT RD, PO BOX 225
HARVARD, IL 60033
Phone 815-943-9876
Manager: DAVE DACY
22211 AIRPORT RD, PO BOX 225
HARVARD, IL 60033
Phone 815-943-9876

Airport Operational Statistics

Aircraft based on the field: 39
Single engine airplanes: 37
Multi engine airplanes: 2
    
Aircraft operations: avg 55/day *
50% transient general aviation
50% local general aviation
* for 12-month period ending 31 August 2016

Instrument Procedures

There are no published instrument procedures at 0C0.

Some nearby airports with instrument procedures:

C77 - Poplar Grove Airport (10 nm SW)
10C - Galt Field Airport (11 nm E)
44C - Beloit Airport (16 nm W)
C02 - Grand Geneva Resort Airport (17 nm NE)
3CK - Lake in the Hills Airport (18 nm SE)
 
Loc | Ops | Rwys | IFR | FBO | Links
Com | Nav | Svcs | Stats | Notes


 
Area around 0C0 (Dacy Airport)
 
Road maps at: MapQuest Bing Google
 
Aerial photo
WARNING: Photo may not be current or correct
Aerial photo of 0C0 (Dacy Airport)
Do you have a better or more recent aerial photo of Dacy Airport that you would like to share? If so, please send us your photo.

 
Sectional chart

 
Airport distance calculator
Flying to Dacy Airport? Find the distance to fly.

From to 0C0

Sunrise and sunset
Times for 20-Sep-2018
 Local
(UTC-5)
 Zulu
(UTC)
Morning civil twilight06:1311:13
Sunrise06:4111:41
Sunset18:5523:55
Evening civil twilight19:2300:23

Current date and time
Zulu (UTC)  20-Sep-2018 17:25:18
Local (UTC-5)  20-Sep-2018 12:25:18
 
METAR
KJVL 
21nm NW 
201645Z 15006KT 10SM OVC012 25/22 A2995
KBUU 
22nm NE 
201655Z AUTO 14004KT 10SM OVC007 22/21 A2995 RMK AO2 T02220205
KRFD 
24nm SW 
201654Z 19006KT 9SM SCT021 BKN250 27/22 A2994 RMK AO2 SLP135 T02670217
K57C 
26nm NE 
201655Z AUTO 05006KT 10SM OVC007 21/20 A2995 RMK AO2 T02110202
KDKB 
28nm S 
201655Z AUTO 17007KT 10SM CLR 28/23 A2996 RMK AO2 T02810230
KENW 
33nm E 
201653Z 15005KT 9SM OVC010 24/22 A2995 RMK AO2 SLP139 T02440222
KDPA 
34nm SE 
201652Z 16007KT 4SM HZ CLR 28/22 A2995 RMK AO2 SLP135 T02830222
KUGN 
34nm E 
201702Z 16006KT 5SM BR FEW008 SCT030 23/21 A2994 RMK AO2 T02330211
K06C 
34nm SE 
201655Z AUTO 22003KT 10SM CLR 26/22 A2995 RMK AO2 T02590217
KRPJ 
37nm SW 
201655Z AUTO 20005KT 7SM CLR 27/22 A2994 RMK AO2 T02730220
TAF
KRFD 
24nm SW 
201524Z 2015/2112 14007KT P6SM FEW010 FEW060 SCT250 FM201800 18009KT P6SM FEW040 FM202100 19013G21KT P6SM SCT050 FM210200 21019G28KT P6SM FEW050 FEW250 WS015/21050KT
NOTAMs
Click for the latest NOTAMs
NOTAMs are issued by the DoD/FAA and will open in a separate window not controlled by AirNav.

 

 
 

FBO, Fuel Providers, and Aircraft Ground Support

  
 Business Name 
 
 Contact 
 
 Services / Description 
 
Fuel Prices
 
Comments
  
Dacy Airshows 815-943-9876
no information available

If you are affiliated with Dacy Airshows and would like to show here your services, contact info, web link, logo, and more, click here
100LL
AS $5.47 
 Updated 15-Aug-2018
 
   write
AS=Assisted/Self Service
Update Fuel Prices
 

Would you like to see your business listed on this page?

 If your business provides an interesting product or service to pilots, flight crews, aircraft, or users of the Dacy Airport, you should consider listing it here.  To start the listing process, click on the button below
 
Add a business
 

Other Pages about Dacy Airport

Update a link
 
Copyright © AirNav, LLC. All rights reserved. Privacy Policy  Contact